| time (UTC) | temp F | wind direction | speed MPH | gust MPH | rain 1hr in | rain 24hr in | rain mn in | humidity % | barometer mb |
| 20260905202825 | 70 | 14 | 3.0 | 3.0 | 0.00 | 0.00 | 0.00 | 47 | 1018.8 |
| 20260905202320 | 71 | 38 | 3.0 | 3.0 | 0.00 | 0.00 | 0.00 | 46 | 1018.9 |
| 20260905201815 | 70 | 25 | 3.0 | 3.0 | 0.00 | 0.00 | 0.00 | 49 | 1018.9 |
| 20260905201311 | 69 | 34 | 3.0 | 3.0 | 0.00 | 0.00 | 0.00 | 50 | 1019.2 |
| 20260905200805 | 68 | 21 | 1.0 | 2.0 | 0.00 | 0.00 | 0.00 | 52 | 1019.2 |
| 20260905200301 | 68 | 29 | 2.0 | 2.0 | 0.00 | 0.00 | 0.00 | 52 | 1019.1 |
| 20260905195758 | 67 | 2 | 4.0 | 5.0 | 0.00 | 0.00 | 0.00 | 51 | 1019.2 |
| 20260905195254 | 67 | 314 | 5.0 | 6.0 | 0.00 | 0.00 | 0.00 | 50 | 1019.4 |
| 20260905194749 | 67 | 20 | 3.0 | 3.0 | 0.00 | 0.00 | 0.00 | 52 | 1019.3 |
| 20260905194249 | 68 | 63 | 1.0 | 1.0 | 0.00 | 0.00 | 0.00 | 52 | 1019.4 |
| 20260905193748 | 67 | 8 | 3.0 | 3.0 | 0.00 | 0.00 | 0.00 | 53 | 1019.4 |
| 20260905193243 | 67 | 309 | 4.0 | 5.0 | 0.00 | 0.00 | 0.00 | 52 | 1019.3 |
| 20260905192739 | 67 | 359 | 2.0 | 3.0 | 0.00 | 0.00 | 0.00 | 52 | 1019.5 |
| 20260905192235 | 67 | 315 | 5.0 | 6.0 | 0.00 | 0.00 | 0.00 | 52 | 1019.5 |
| 20260905191734 | 67 | 57 | 0.0 | 1.0 | 0.00 | 0.00 | 0.00 | 52 | 1019.8 |
| 20260905191232 | 66 | 31 | 2.0 | 2.0 | 0.00 | 0.00 | 0.00 | 52 | 1019.6 |
| 20260905190731 | 66 | 330 | 4.0 | 5.0 | 0.00 | 0.00 | 0.00 | 53 | 1019.7 |
| 20260905190231 | 66 | 291 | 3.0 | 5.0 | 0.00 | 0.00 | 0.00 | 53 | 1019.8 |
| 20260905185730 | 66 | 303 | 5.0 | 7.0 | 0.00 | 0.00 | 0.00 | 53 | 1019.8 |
| 20260905185225 | 66 | 352 | 3.0 | 3.0 | 0.00 | 0.00 | 0.00 | 53 | 1019.8 |
| 20260905184719 | 65 | 14 | 2.0 | 3.0 | 0.00 | 0.00 | 0.00 | 53 | 1019.8 |
| 20260905184218 | 66 | 283 | 6.0 | 7.0 | 0.00 | 0.00 | 0.00 | 53 | 1020.1 |
| 20260905183712 | 65 | 30 | 3.0 | 3.0 | 0.00 | 0.00 | 0.00 | 54 | 1020.2 |
| 20260905183207 | 67 | 324 | 5.0 | 6.0 | 0.00 | 0.00 | 0.00 | 53 | 1020.2 |
| 20260905182701 | 67 | 46 | 3.0 | 3.0 | 0.00 | 0.00 | 0.00 | 53 | 1020.1 |
| 20260905182200 | 67 | 50 | 2.0 | 3.0 | 0.00 | 0.00 | 0.00 | 54 | 1020.1 |
| 20260905181656 | 66 | 17 | 3.0 | 3.0 | 0.00 | 0.00 | 0.00 | 54 | 1020.1 |
| 20260905181155 | 66 | 53 | 0.0 | 0.0 | 0.00 | 0.00 | 0.00 | 52 | 1020.1 |
| 20260905180649 | 66 | 41 | 1.0 | 1.0 | 0.00 | 0.00 | 0.00 | 53 | 1020.4 |
| 20260905180146 | 67 | 316 | 5.0 | 7.0 | 0.00 | 0.00 | 0.00 | 52 | 1020.4 |
| 20260905175644 | 67 | 27 | 1.0 | 2.0 | 0.00 | 0.00 | 0.00 | 50 | 1020.3 |
| 20260905175140 | 68 | 131 | 2.0 | 3.0 | 0.00 | 0.00 | 0.00 | 50 | 1020.4 |
| 20260905174635 | 66 | 16 | 3.0 | 3.0 | 0.00 | 0.00 | 0.00 | 53 | 1020.4 |
| 20260905174131 | 65 | 34 | 2.0 | 2.0 | 0.00 | 0.00 | 0.00 | 54 | 1020.6 |
| 20260905173626 | 65 | 23 | 1.0 | 2.0 | 0.00 | 0.00 | 0.00 | 54 | 1020.7 |
| 20260905173122 | 65 | 32 | 0.0 | 0.0 | 0.00 | 0.00 | 0.00 | 57 | 1020.7 |
| 20260905172621 | 65 | 164 | 3.0 | 3.0 | 0.00 | 0.00 | 0.00 | 55 | 1020.7 |
| 20260905172116 | 64 | 29 | 1.0 | 2.0 | 0.00 | 0.00 | 0.00 | 56 | 1020.7 |
| 20260905171612 | 64 | 280 | 4.0 | 5.0 | 0.00 | 0.00 | 0.00 | 56 | 1020.8 |
| 20260905171108 | 63 | 353 | 2.0 | 2.0 | 0.00 | 0.00 | 0.00 | 58 | 1020.7 |
| 20260905170604 | 64 | 292 | 5.0 | 7.0 | 0.00 | 0.00 | 0.00 | 57 | 1020.6 |
| 20260905170059 | 64 | 5 | 3.0 | 3.0 | 0.00 | 0.00 | 0.00 | 58 | 1020.7 |
| 20260905165554 | 64 | 41 | 2.0 | 2.0 | 0.00 | 0.00 | 0.00 | 59 | 1020.8 |
| 20260905165049 | 64 | 5 | 3.0 | 3.0 | 0.00 | 0.00 | 0.00 | 58 | 1020.9 |
| 20260905164544 | 64 | 14 | 3.0 | 3.0 | 0.00 | 0.00 | 0.00 | 59 | 1021.1 |
| 20260905164038 | 64 | 313 | 5.0 | 6.0 | 0.00 | 0.00 | 0.00 | 58 | 1021.2 |
| 20260905163534 | 64 | 299 | 5.0 | 6.0 | 0.00 | 0.00 | 0.00 | 59 | 1021.1 |
| 20260905163030 | 63 | 4 | 3.0 | 5.0 | 0.00 | 0.00 | 0.00 | 61 | 1021.2 |
| 20260905162527 | 62 | 30 | 2.0 | 2.0 | 0.00 | 0.00 | 0.00 | 63 | 1020.9 |
| 20260905162021 | 62 | 334 | 5.0 | 6.0 | 0.00 | 0.00 | 0.00 | 63 | 1021.1 |
| 20260905161520 | 62 | 317 | 5.0 | 6.0 | 0.00 | 0.00 | 0.00 | 63 | 1020.9 |
| 20260905161018 | 62 | 334 | 5.0 | 6.0 | 0.00 | 0.00 | 0.00 | 62 | 1020.9 |
| 20260905160511 | 62 | 340 | 6.0 | 7.0 | 0.00 | 0.00 | 0.00 | 64 | 1021.1 |
| 20260905160006 | 62 | 323 | 5.0 | 7.0 | 0.00 | 0.00 | 0.00 | 63 | 1021.2 |
| 20260905155506 | 62 | 307 | 7.0 | 8.0 | 0.00 | 0.00 | 0.00 | 62 | 1021.1 |
| 20260905155004 | 61 | 276 | 3.0 | 3.0 | 0.00 | 0.00 | 0.00 | 66 | 1020.7 |
| 20260905154500 | 61 | 289 | 5.0 | 6.0 | 0.00 | 0.00 | 0.00 | 68 | 1020.8 |
| 20260905153955 | 61 | 306 | 4.0 | 5.0 | 0.00 | 0.00 | 0.00 | 66 | 1021.1 |
| 20260905153452 | 61 | 301 | 2.0 | 2.0 | 0.00 | 0.00 | 0.00 | 67 | 1020.9 |
| 20260905152951 | 60 | 195 | 3.0 | 3.0 | 0.00 | 0.00 | 0.00 | 69 | 1020.9 |
| 20260905152450 | 60 | 272 | 2.0 | 2.0 | 0.00 | 0.00 | 0.00 | 69 | 1021.1 |
| 20260905151946 | 59 | 312 | 3.0 | 3.0 | 0.00 | 0.00 | 0.00 | 70 | 1021.1 |
| 20260905151441 | 59 | 259 | 2.0 | 2.0 | 0.00 | 0.00 | 0.00 | 71 | 1021.1 |
| 20260905150936 | 58 | 249 | 3.0 | 3.0 | 0.00 | 0.00 | 0.00 | 74 | 1021.1 |
| 20260905150431 | 58 | 268 | 4.0 | 5.0 | 0.00 | 0.00 | 0.00 | 74 | 1020.9 |
| 20260905145927 | 58 | 276 | 5.0 | 5.0 | 0.00 | 0.00 | 0.00 | 74 | 1021.1 |
| 20260905145422 | 58 | 317 | 3.0 | 3.0 | 0.00 | 0.00 | 0.00 | 74 | 1020.9 |
| 20260905144921 | 58 | 277 | 4.0 | 5.0 | 0.00 | 0.00 | 0.00 | 76 | 1020.9 |
| 20260905144417 | 57 | 263 | 4.0 | 5.0 | 0.00 | 0.00 | 0.00 | 76 | 1020.8 |
| 20260905143915 | 57 | 265 | 3.0 | 3.0 | 0.00 | 0.00 | 0.00 | 78 | 1020.8 |
| 20260905143409 | 56 | 269 | 3.0 | 5.0 | 0.00 | 0.00 | 0.00 | 79 | 1021.1 |
| 20260905142904 | 55 | 250 | 5.0 | 6.0 | 0.00 | 0.00 | 0.00 | 80 | 1020.8 |
| 20260905142403 | 55 | 275 | 5.0 | 5.0 | 0.00 | 0.00 | 0.00 | 82 | 1020.9 |
| 20260905141859 | 53 | 282 | 2.0 | 2.0 | 0.00 | 0.00 | 0.00 | 84 | 1020.8 |
| 20260905141353 | 53 | 293 | 3.0 | 3.0 | 0.00 | 0.00 | 0.00 | 84 | 1021.1 |
| 20260905140850 | 53 | 273 | 4.0 | 5.0 | 0.00 | 0.00 | 0.00 | 85 | 1020.7 |
| 20260905140350 | 53 | 273 | 4.0 | 6.0 | 0.00 | 0.00 | 0.00 | 84 | 1020.8 |
| 20260905135848 | 53 | 274 | 3.0 | 5.0 | 0.00 | 0.00 | 0.00 | 84 | 1020.7 |
| 20260905135344 | 53 | 245 | 5.0 | 5.0 | 0.00 | 0.00 | 0.00 | 84 | 1020.8 |
| 20260905134839 | 53 | 250 | 6.0 | 8.0 | 0.00 | 0.00 | 0.00 | 84 | 1020.7 |
| 20260905134338 | 53 | 242 | 5.0 | 6.0 | 0.00 | 0.00 | 0.00 | 86 | 1020.8 |
| 20260905133833 | 53 | 237 | 4.0 | 5.0 | 0.00 | 0.00 | 0.00 | 86 | 1020.6 |
| 20260905133328 | 53 | 357 | 1.0 | 1.0 | 0.00 | 0.00 | 0.00 | 86 | 1020.2 |
| 20260905132826 | 53 | 250 | 4.0 | 5.0 | 0.00 | 0.00 | 0.00 | 87 | 1020.6 |
| 20260905132323 | 53 | 255 | 3.0 | 3.0 | 0.00 | 0.00 | 0.00 | 86 | 1020.1 |
| 20260905131817 | 53 | 242 | 4.0 | 5.0 | 0.00 | 0.00 | 0.00 | 87 | 1020.4 |
| 20260905131313 | 53 | 249 | 3.0 | 3.0 | 0.00 | 0.00 | 0.00 | 85 | 1020.1 |
| 20260905130808 | 53 | 239 | 1.0 | 2.0 | 0.00 | 0.00 | 0.00 | 85 | 1019.9 |
| 20260905130306 | 53 | 255 | 5.0 | 6.0 | 0.00 | 0.00 | 0.00 | 84 | 1020.1 |
| 20260905125802 | 54 | 283 | 4.0 | 5.0 | 0.00 | 0.00 | 0.00 | 84 | 1020.1 |
| 20260905125256 | 54 | 264 | 5.0 | 6.0 | 0.00 | 0.00 | 0.00 | 84 | 1020.3 |
| 20260905124753 | 53 | 271 | 3.0 | 3.0 | 0.00 | 0.00 | 0.00 | 85 | 1020.3 |
| 20260905124249 | 54 | 259 | 2.0 | 2.0 | 0.00 | 0.00 | 0.00 | 85 | 1020.1 |
| 20260905123744 | 53 | 298 | 3.0 | 5.0 | 0.00 | 0.00 | 0.00 | 86 | 1020.1 |
| 20260905123241 | 54 | 263 | 5.0 | 6.0 | 0.00 | 0.00 | 0.00 | 86 | 1019.9 |
| 20260905122740 | 54 | 284 | 4.0 | 5.0 | 0.00 | 0.00 | 0.00 | 86 | 1019.8 |
| 20260905122234 | 54 | 257 | 5.0 | 6.0 | 0.00 | 0.00 | 0.00 | 86 | 1019.8 |
| 20260905121730 | 54 | 245 | 5.0 | 6.0 | 0.00 | 0.00 | 0.00 | 85 | 1019.8 |
| 20260905121226 | 53 | 287 | 5.0 | 6.0 | 0.00 | 0.00 | 0.00 | 86 | 1019.4 |
| 20260905120725 | 53 | 269 | 3.0 | 3.0 | 0.00 | 0.00 | 0.00 | 86 | 1019.4 |
| 20260905120219 | 53 | 252 | 3.0 | 3.0 | 0.00 | 0.00 | 0.00 | 87 | 1019.7 |
| 20260905115714 | 54 | 272 | 5.0 | 6.0 | 0.00 | 0.00 | 0.00 | 85 | 1019.5 |
| 20260905115208 | 54 | 288 | 3.0 | 3.0 | 0.00 | 0.00 | 0.00 | 84 | 1019.6 |
| 20260905114703 | 54 | 312 | 3.0 | 3.0 | 0.00 | 0.00 | 0.00 | 84 | 1019.5 |
| 20260905114201 | 55 | 291 | 3.0 | 3.0 | 0.00 | 0.00 | 0.00 | 83 | 1019.9 |
| 20260905113655 | 55 | 330 | 2.0 | 2.0 | 0.00 | 0.00 | 0.00 | 83 | 1019.9 |
| 20260905113151 | 54 | 312 | 5.0 | 5.0 | 0.00 | 0.00 | 0.00 | 83 | 1019.5 |
| 20260905112650 | 54 | 307 | 4.0 | 5.0 | 0.00 | 0.00 | 0.00 | 84 | 1019.8 |
| 20260905112147 | 55 | 270 | 5.0 | 5.0 | 0.00 | 0.00 | 0.00 | 84 | 1019.9 |
| 20260905111646 | 55 | 290 | 2.0 | 2.0 | 0.00 | 0.00 | 0.00 | 83 | 1019.9 |
| 20260905111145 | 55 | 285 | 5.0 | 6.0 | 0.00 | 0.00 | 0.00 | 83 | 1019.8 |
| 20260905110645 | 55 | 269 | 4.0 | 5.0 | 0.00 | 0.00 | 0.00 | 83 | 1019.6 |
| 20260905110140 | 54 | 293 | 5.0 | 6.0 | 0.00 | 0.00 | 0.00 | 84 | 1019.5 |
| 20260905105635 | 54 | 283 | 8.0 | 8.0 | 0.00 | 0.00 | 0.00 | 84 | 1019.6 |
| 20260905105134 | 54 | 267 | 6.0 | 7.0 | 0.00 | 0.00 | 0.00 | 84 | 1019.7 |
| 20260905104629 | 54 | 238 | 5.0 | 5.0 | 0.00 | 0.00 | 0.00 | 84 | 1019.3 |
| 20260905104125 | 55 | 248 | 3.0 | 3.0 | 0.00 | 0.00 | 0.00 | 84 | 1018.8 |
| 20260905103620 | 55 | 307 | 6.0 | 7.0 | 0.00 | 0.00 | 0.00 | 83 | 1018.7 |
| 20260905103116 | 55 | 44 | 0.0 | 0.0 | 0.00 | 0.00 | 0.00 | 81 | 1019.1 |
| 20260905102611 | 55 | 287 | 5.0 | 7.0 | 0.00 | 0.00 | 0.00 | 81 | 1019.4 |
| 20260905102108 | 55 | 289 | 6.0 | 7.0 | 0.00 | 0.00 | 0.00 | 81 | 1019.3 |
| 20260905101606 | 55 | 257 | 4.0 | 5.0 | 0.00 | 0.00 | 0.00 | 81 | 1019.2 |
| 20260905101104 | 55 | 312 | 4.0 | 5.0 | 0.00 | 0.00 | 0.00 | 82 | 1018.8 |
| 20260905100601 | 56 | 301 | 5.0 | 6.0 | 0.00 | 0.00 | 0.00 | 80 | 1019.3 |
| 20260905100055 | 56 | 319 | 5.0 | 5.0 | 0.00 | 0.00 | 0.00 | 78 | 1019.2 |
| 20260905095549 | 56 | 322 | 4.0 | 5.0 | 0.00 | 0.00 | 0.00 | 78 | 1019.8 |
| 20260905095045 | 56 | 276 | 5.0 | 5.0 | 0.00 | 0.00 | 0.00 | 78 | 1020.1 |
| 20260905094540 | 56 | 303 | 3.0 | 3.0 | 0.00 | 0.00 | 0.00 | 78 | 1019.8 |
| 20260905094039 | 55 | 254 | 7.0 | 8.0 | 0.00 | 0.00 | 0.00 | 80 | 1020.6 |
| 20260905093538 | 55 | 243 | 5.0 | 6.0 | 0.00 | 0.00 | 0.00 | 81 | 1020.1 |
| 20260905093035 | 54 | 249 | 5.0 | 7.0 | 0.00 | 0.00 | 0.00 | 82 | 1019.3 |
| 20260905092530 | 55 | 253 | 4.0 | 5.0 | 0.00 | 0.00 | 0.00 | 82 | 1019.1 |
| 20260905092026 | 55 | 270 | 3.0 | 3.0 | 0.00 | 0.00 | 0.00 | 81 | 1018.6 |
| 20260905091525 | 55 | 317 | 2.0 | 2.0 | 0.00 | 0.00 | 0.00 | 82 | 1018.6 |
| 20260905091020 | 56 | 336 | 3.0 | 3.0 | 0.00 | 0.00 | 0.00 | 78 | 1018.4 |
| 20260905090519 | 56 | 293 | 5.0 | 5.0 | 0.00 | 0.00 | 0.00 | 78 | 1018.7 |
| 20260905090014 | 56 | 291 | 5.0 | 6.0 | 0.00 | 0.00 | 0.00 | 77 | 1019.5 |
| 20260905085513 | 56 | 253 | 5.0 | 6.0 | 0.00 | 0.00 | 0.00 | 79 | 1019.6 |
| 20260905085009 | 55 | 249 | 6.0 | 7.0 | 0.00 | 0.00 | 0.00 | 79 | 1019.4 |
| 20260905084503 | 56 | 266 | 4.0 | 5.0 | 0.00 | 0.00 | 0.00 | 78 | 1018.8 |
| 20260905083957 | 55 | 282 | 4.0 | 5.0 | 0.00 | 0.00 | 0.00 | 79 | 1018.7 |
| 20260905083453 | 56 | 287 | 5.0 | 6.0 | 0.00 | 0.00 | 0.00 | 79 | 1018.6 |
| 20260905082949 | 57 | 279 | 5.0 | 6.0 | 0.00 | 0.00 | 0.00 | 78 | 1018.6 |
| 20260905082444 | 56 | 251 | 4.0 | 5.0 | 0.00 | 0.00 | 0.00 | 78 | 1018.7 |
| 20260905081939 | 56 | 349 | 1.0 | 1.0 | 0.00 | 0.00 | 0.00 | 79 | 1018.7 |
| 20260905081434 | 56 | 269 | 3.0 | 5.0 | 0.00 | 0.00 | 0.00 | 80 | 1019.1 |
| 20260905080933 | 56 | 263 | 4.0 | 5.0 | 0.00 | 0.00 | 0.00 | 79 | 1018.6 |
| 20260905080428 | 56 | 257 | 3.0 | 3.0 | 0.00 | 0.00 | 0.00 | 79 | 1018.6 |
| 20260905075927 | 56 | 271 | 4.0 | 5.0 | 0.00 | 0.00 | 0.00 | 79 | 1019.1 |
| 20260905075421 | 56 | 266 | 4.0 | 5.0 | 0.00 | 0.00 | 0.00 | 80 | 1018.8 |
| 20260905074920 | 56 | 294 | 3.0 | 3.0 | 0.00 | 0.00 | 0.00 | 80 | 1018.8 |
| 20260905074416 | 56 | 269 | 6.0 | 7.0 | 0.00 | 0.00 | 0.00 | 80 | 1018.8 |
| 20260905073912 | 55 | 268 | 3.0 | 3.0 | 0.00 | 0.00 | 0.00 | 80 | 1018.9 |
| 20260905073407 | 55 | 264 | 6.0 | 7.0 | 0.00 | 0.00 | 0.00 | 80 | 1018.8 |
| 20260905072903 | 56 | 288 | 5.0 | 6.0 | 0.00 | 0.00 | 0.00 | 80 | 1018.6 |
| 20260905072356 | 56 | 275 | 4.0 | 6.0 | 0.00 | 0.00 | 0.00 | 79 | 1018.5 |
| 20260905071852 | 55 | 271 | 5.0 | 6.0 | 0.00 | 0.00 | 0.00 | 81 | 1018.6 |
| 20260905071343 | 56 | 281 | 5.0 | 6.0 | 0.00 | 0.00 | 0.00 | 81 | 1018.4 |
| 20260905070837 | 56 | 273 | 4.0 | 5.0 | 0.00 | 0.00 | 0.00 | 78 | 1018.2 |
| 20260905070334 | 56 | 285 | 4.0 | 5.0 | 0.00 | 0.00 | 0.00 | 78 | 1018.2 |
| 20260905065833 | 57 | 315 | 3.0 | 3.0 | 0.00 | 0.00 | 0.00 | 76 | 1018.0 |
| 20260905065331 | 56 | 281 | 7.0 | 7.0 | 0.00 | 0.00 | 0.00 | 78 | 1017.9 |
| 20260905064827 | 56 | 283 | 6.0 | 7.0 | 0.00 | 0.00 | 0.00 | 78 | 1017.7 |
| 20260905064323 | 57 | 309 | 7.0 | 8.0 | 0.00 | 0.00 | 0.00 | 77 | 1017.6 |
| 20260905063820 | 57 | 339 | 8.0 | 9.0 | 0.00 | 0.00 | 0.00 | 79 | 1017.7 |
| 20260905063317 | 57 | 322 | 6.0 | 7.0 | 0.00 | 0.00 | 0.00 | 78 | 1017.7 |
| 20260905062812 | 57 | 324 | 5.0 | 6.0 | 0.00 | 0.00 | 0.00 | 78 | 1017.9 |
| 20260905062307 | 57 | 308 | 6.0 | 7.0 | 0.00 | 0.00 | 0.00 | 77 | 1017.6 |
| 20260905061802 | 56 | 331 | 5.0 | 6.0 | 0.00 | 0.00 | 0.00 | 77 | 1017.6 |
| 20260905061256 | 56 | 15 | 3.0 | 3.0 | 0.00 | 0.00 | 0.00 | 77 | 1017.7 |
| 20260905060750 | 57 | 337 | 4.0 | 5.0 | 0.00 | 0.00 | 0.00 | 76 | 1017.7 |
| 20260905060247 | 57 | 311 | 5.0 | 6.0 | 0.00 | 0.00 | 0.00 | 75 | 1017.7 |
| 20260905055745 | 57 | 302 | 5.0 | 7.0 | 0.00 | 0.00 | 0.00 | 75 | 1017.5 |
| 20260905055241 | 57 | 346 | 4.0 | 6.0 | 0.00 | 0.00 | 0.00 | 76 | 1017.6 |
| 20260905054736 | 57 | 5 | 3.0 | 5.0 | 0.00 | 0.00 | 0.00 | 76 | 1017.4 |
| 20260905054232 | 57 | 0 | 4.0 | 5.0 | 0.00 | 0.00 | 0.00 | 76 | 1017.7 |
| 20260905053731 | 58 | 316 | 3.0 | 5.0 | 0.00 | 0.00 | 0.00 | 75 | 1017.6 |
| 20260905053226 | 59 | 315 | 7.0 | 8.0 | 0.00 | 0.00 | 0.00 | 73 | 1017.6 |
| 20260905052721 | 59 | 318 | 12.0 | 14.0 | 0.00 | 0.00 | 0.00 | 71 | 1017.9 |
| 20260905052216 | 59 | 294 | 11.0 | 14.0 | 0.00 | 0.00 | 0.00 | 71 | 1017.7 |
| 20260905051715 | 59 | 328 | 5.0 | 6.0 | 0.00 | 0.00 | 0.00 | 72 | 1018.2 |
| 20260905051212 | 59 | 340 | 9.0 | 11.0 | 0.00 | 0.00 | 0.00 | 72 | 1018.0 |
| 20260905050708 | 59 | 276 | 10.0 | 11.0 | 0.00 | 0.00 | 0.00 | 72 | 1017.9 |
| 20260905050205 | 59 | 303 | 11.0 | 13.0 | 0.00 | 0.00 | 0.00 | 72 | 1017.8 |
| 20260905045704 | 60 | 299 | 10.0 | 14.0 | 0.00 | 0.00 | 0.00 | 71 | 1017.9 |
| 20260905045200 | 60 | 266 | 11.0 | 14.0 | 0.00 | 0.00 | 0.00 | 70 | 1018.4 |
| 20260905044655 | 59 | 274 | 13.0 | 15.0 | 0.00 | 0.00 | 0.00 | 70 | 1017.8 |
| 20260905044150 | 59 | 279 | 8.0 | 9.0 | 0.00 | 0.00 | 0.00 | 71 | 1017.3 |
| 20260905043649 | 59 | 298 | 6.0 | 7.0 | 0.00 | 0.00 | 0.00 | 71 | 1017.0 |
| 20260905043144 | 59 | 291 | 7.0 | 8.0 | 0.00 | 0.00 | 0.00 | 72 | 1016.9 |
| 20260905042643 | 59 | 288 | 7.0 | 8.0 | 0.00 | 0.00 | 0.00 | 72 | 1016.7 |
| 20260905042137 | 60 | 308 | 8.0 | 9.0 | 0.00 | 0.00 | 0.00 | 70 | 1016.8 |
| 20260905041633 | 59 | 298 | 7.0 | 8.0 | 0.00 | 0.00 | 0.00 | 71 | 1016.9 |
| 20260905041128 | 60 | 2 | 4.0 | 7.0 | 0.00 | 0.00 | 0.00 | 70 | 1016.7 |
| 20260905040629 | 60 | 306 | 9.0 | 11.0 | 0.00 | 0.00 | 0.00 | 70 | 1016.6 |
| 20260905040127 | 60 | 302 | 8.0 | 9.0 | 0.00 | 0.00 | 0.00 | 69 | 1016.5 |
| 20260905035622 | 61 | 316 | 11.0 | 13.0 | 0.00 | 0.00 | 0.00 | 68 | 1016.4 |
| 20260905035119 | 61 | 341 | 7.0 | 9.0 | 0.00 | 0.00 | 0.00 | 68 | 1016.6 |
| 20260905034614 | 62 | 327 | 7.0 | 8.0 | 0.00 | 0.00 | 0.00 | 65 | 1016.5 |
| 20260905034108 | 62 | 311 | 7.0 | 8.0 | 0.00 | 0.00 | 0.00 | 64 | 1016.6 |
| 20260905033608 | 63 | 302 | 8.0 | 9.0 | 0.00 | 0.00 | 0.00 | 61 | 1016.5 |
| 20260905033104 | 64 | 296 | 10.0 | 11.0 | 0.00 | 0.00 | 0.00 | 59 | 1016.5 |
| 20260905032603 | 64 | 290 | 11.0 | 11.0 | 0.00 | 0.00 | 0.00 | 59 | 1016.8 |
| 20260905032058 | 64 | 292 | 12.0 | 14.0 | 0.00 | 0.00 | 0.00 | 59 | 1016.9 |
| 20260905031554 | 63 | 258 | 11.0 | 14.0 | 0.00 | 0.00 | 0.00 | 59 | 1016.5 |
| 20260905031054 | 63 | 246 | 9.0 | 9.0 | 0.00 | 0.00 | 0.00 | 59 | 1016.1 |
| 20260905030549 | 63 | 274 | 7.0 | 7.0 | 0.00 | 0.00 | 0.00 | 59 | 1016.1 |
| 20260905030044 | 63 | 272 | 6.0 | 7.0 | 0.00 | 0.00 | 0.00 | 60 | 1016.1 |
| 20260905025539 | 63 | 263 | 8.0 | 8.0 | 0.00 | 0.00 | 0.00 | 60 | 1015.9 |
| 20260905025035 | 63 | 254 | 9.0 | 10.0 | 0.00 | 0.00 | 0.00 | 59 | 1015.9 |
| 20260905024530 | 63 | 274 | 6.0 | 7.0 | 0.00 | 0.00 | 0.00 | 60 | 1015.8 |
| 20260905024026 | 63 | 276 | 6.0 | 7.0 | 0.00 | 0.00 | 0.00 | 59 | 1015.7 |
| 20260905023521 | 63 | 256 | 7.0 | 8.0 | 0.00 | 0.00 | 0.00 | 58 | 1015.7 |
| 20260905023021 | 63 | 282 | 9.0 | 9.0 | 0.00 | 0.00 | 0.00 | 58 | 1015.8 |
| 20260905022515 | 63 | 284 | 9.0 | 11.0 | 0.00 | 0.00 | 0.00 | 59 | 1015.5 |
| 20260905022010 | 63 | 281 | 9.0 | 10.0 | 0.00 | 0.00 | 0.00 | 59 | 1015.6 |
| 20260905021509 | 63 | 262 | 9.0 | 10.0 | 0.00 | 0.00 | 0.00 | 60 | 1015.4 |
| 20260905021005 | 63 | 278 | 8.0 | 9.0 | 0.00 | 0.00 | 0.00 | 61 | 1015.5 |
| 20260905020500 | 64 | 265 | 7.0 | 8.0 | 0.00 | 0.00 | 0.00 | 59 | 1015.4 |
| 20260905015959 | 65 | 286 | 7.0 | 8.0 | 0.00 | 0.00 | 0.00 | 57 | 1015.0 |
| 20260905015458 | 65 | 299 | 10.0 | 10.0 | 0.00 | 0.00 | 0.00 | 58 | 1014.9 |
| 20260905014957 | 66 | 314 | 9.0 | 10.0 | 0.00 | 0.00 | 0.00 | 60 | 1015.0 |
| 20260905014453 | 66 | 287 | 7.0 | 8.0 | 0.00 | 0.00 | 0.00 | 59 | 1015.0 |
| 20260905013948 | 66 | 284 | 9.0 | 10.0 | 0.00 | 0.00 | 0.00 | 58 | 1014.9 |
| 20260905013444 | 67 | 254 | 9.0 | 13.0 | 0.00 | 0.00 | 0.00 | 57 | 1014.7 |
| 20260905012939 | 68 | 287 | 11.0 | 13.0 | 0.00 | 0.00 | 0.00 | 53 | 1014.6 |
| 20260905012434 | 69 | 263 | 9.0 | 10.0 | 0.00 | 0.00 | 0.00 | 51 | 1014.4 |
| 20260905011931 | 69 | 262 | 11.0 | 13.0 | 0.00 | 0.00 | 0.00 | 49 | 1014.0 |
| 20260905011427 | 70 | 275 | 10.0 | 11.0 | 0.00 | 0.00 | 0.00 | 49 | 1013.9 |
| 20260905010922 | 71 | 290 | 9.0 | 10.0 | 0.00 | 0.00 | 0.00 | 47 | 1013.9 |
| 20260905010417 | 71 | 263 | 8.0 | 8.0 | 0.00 | 0.00 | 0.00 | 45 | 1013.7 |
| 20260905005913 | 71 | 254 | 5.0 | 6.0 | 0.00 | 0.00 | 0.00 | 46 | 1013.4 |
| 20260905005409 | 71 | 249 | 5.0 | 6.0 | 0.00 | 0.00 | 0.00 | 46 | 1013.2 |
| 20260905004904 | 72 | 263 | 7.0 | 8.0 | 0.00 | 0.00 | 0.00 | 44 | 1012.9 |
| 20260905004403 | 72 | 287 | 4.0 | 5.0 | 0.00 | 0.00 | 0.00 | 45 | 1012.9 |
| 20260905003859 | 72 | 276 | 4.0 | 5.0 | 0.00 | 0.00 | 0.00 | 46 | 1013.0 |
| 20260905003354 | 72 | 262 | 5.0 | 6.0 | 0.00 | 0.00 | 0.00 | 47 | 1013.0 |
| 20260905002849 | 72 | 251 | 5.0 | 6.0 | 0.00 | 0.00 | 0.00 | 45 | 1012.9 |
| 20260905002344 | 73 | 279 | 5.0 | 6.0 | 0.00 | 0.00 | 0.00 | 45 | 1012.9 |
| 20260905001839 | 73 | 319 | 3.0 | 3.0 | 0.00 | 0.00 | 0.00 | 45 | 1013.0 |
| 20260905001339 | 73 | 243 | 3.0 | 3.0 | 0.00 | 0.00 | 0.00 | 45 | 1013.0 |
| 20260905000834 | 73 | 285 | 3.0 | 3.0 | 0.00 | 0.00 | 0.00 | 45 | 1012.9 |
| 20260905000329 | 73 | 276 | 4.0 | 5.0 | 0.00 | 0.00 | 0.00 | 45 | 1013.0 |
| 20260904235825 | 73 | 302 | 5.0 | 6.0 | 0.00 | 0.00 | 0.00 | 45 | 1012.8 |
| 20260904235320 | 73 | 350 | 5.0 | 7.0 | 0.00 | 0.00 | 0.00 | 43 | 1012.7 |
| 20260904234814 | 73 | 301 | 7.0 | 9.0 | 0.00 | 0.00 | 0.00 | 42 | 1012.8 |
| 20260904234309 | 74 | 277 | 10.0 | 11.0 | 0.00 | 0.00 | 0.00 | 43 | 1013.0 |
| 20260904233805 | 76 | 280 | 6.0 | 8.0 | 0.00 | 0.00 | 0.00 | 36 | 1012.9 |
| 20260904233301 | 76 | 272 | 8.0 | 9.0 | 0.00 | 0.00 | 0.00 | 35 | 1012.9 |
| 20260904232757 | 75 | 271 | 7.0 | 9.0 | 0.00 | 0.00 | 0.00 | 36 | 1012.8 |
| 20260904232253 | 75 | 269 | 5.0 | 5.0 | 0.00 | 0.00 | 0.00 | 37 | 1012.8 |
| 20260904231749 | 75 | 298 | 4.0 | 5.0 | 0.00 | 0.00 | 0.00 | 35 | 1012.9 |
| 20260904231244 | 75 | 298 | 5.0 | 6.0 | 0.00 | 0.00 | 0.00 | 35 | 1012.8 |
| 20260904230739 | 75 | 304 | 5.0 | 6.0 | 0.00 | 0.00 | 0.00 | 35 | 1012.7 |
| 20260904230233 | 76 | 316 | 5.0 | 5.0 | 0.00 | 0.00 | 0.00 | 34 | 1012.9 |
| 20260904225732 | 76 | 332 | 2.0 | 2.0 | 0.00 | 0.00 | 0.00 | 33 | 1012.7 |
| 20260904225226 | 76 | 44 | 2.0 | 2.0 | 0.00 | 0.00 | 0.00 | 35 | 1012.6 |
| 20260904224725 | 76 | 38 | 2.0 | 2.0 | 0.00 | 0.00 | 0.00 | 35 | 1012.4 |
| 20260904224221 | 78 | 21 | 2.0 | 2.0 | 0.00 | 0.00 | 0.00 | 34 | 1012.6 |
| 20260904223720 | 77 | 17 | 2.0 | 2.0 | 0.00 | 0.00 | 0.00 | 33 | 1012.5 |
| 20260904223215 | 77 | 21 | 3.0 | 3.0 | 0.00 | 0.00 | 0.00 | 34 | 1012.7 |
| 20260904222711 | 77 | 51 | 3.0 | 3.0 | 0.00 | 0.00 | 0.00 | 33 | 1012.8 |
| 20260904222207 | 76 | 88 | 2.0 | 2.0 | 0.00 | 0.00 | 0.00 | 33 | 1012.8 |
| 20260904221706 | 77 | 84 | 3.0 | 5.0 | 0.00 | 0.00 | 0.00 | 36 | 1012.8 |
| 20260904221201 | 78 | 299 | 5.0 | 6.0 | 0.00 | 0.00 | 0.00 | 33 | 1012.6 |
| 20260904220656 | 77 | 103 | 5.0 | 6.0 | 0.00 | 0.00 | 0.00 | 34 | 1012.7 |
| 20260904220151 | 77 | 40 | 1.0 | 2.0 | 0.00 | 0.00 | 0.00 | 34 | 1012.7 |
| 20260904215650 | 78 | 72 | 3.0 | 5.0 | 0.00 | 0.00 | 0.00 | 36 | 1012.6 |
| 20260904215147 | 77 | 80 | 2.0 | 3.0 | 0.00 | 0.00 | 0.00 | 35 | 1012.5 |
| 20260904214641 | 77 | 25 | 3.0 | 5.0 | 0.00 | 0.00 | 0.00 | 37 | 1012.6 |
| 20260904214137 | 77 | 19 | 2.0 | 2.0 | 0.00 | 0.00 | 0.00 | 35 | 1012.6 |
| 20260904213634 | 76 | 27 | 5.0 | 6.0 | 0.00 | 0.00 | 0.00 | 38 | 1012.5 |
| 20260904213131 | 76 | 349 | 3.0 | 3.0 | 0.00 | 0.00 | 0.00 | 36 | 1012.6 |
| 20260904212626 | 76 | 55 | 1.0 | 1.0 | 0.00 | 0.00 | 0.00 | 36 | 1012.5 |
| 20260904212121 | 76 | 348 | 3.0 | 5.0 | 0.00 | 0.00 | 0.00 | 36 | 1012.5 |
| 20260904211620 | 77 | 303 | 5.0 | 7.0 | 0.00 | 0.00 | 0.00 | 36 | 1012.5 |
| 20260904211116 | 77 | 333 | 4.0 | 6.0 | 0.00 | 0.00 | 0.00 | 36 | 1012.7 |
| 20260904210616 | 77 | 41 | 2.0 | 2.0 | 0.00 | 0.00 | 0.00 | 37 | 1012.8 |
| 20260904210111 | 77 | 1 | 4.0 | 5.0 | 0.00 | 0.00 | 0.00 | 38 | 1012.7 |
| 20260904205607 | 77 | 10 | 5.0 | 6.0 | 0.00 | 0.00 | 0.00 | 38 | 1012.6 |
| 20260904205103 | 76 | 338 | 3.0 | 3.0 | 0.00 | 0.00 | 0.00 | 37 | 1012.8 |
| 20260904204559 | 76 | 12 | 3.0 | 3.0 | 0.00 | 0.00 | 0.00 | 37 | 1012.7 |
| 20260904204055 | 76 | 46 | 2.0 | 2.0 | 0.00 | 0.00 | 0.00 | 38 | 1012.6 |
| 20260904203550 | 76 | 350 | 3.0 | 3.0 | 0.00 | 0.00 | 0.00 | 39 | 1012.7 |